Location: Quaker Farms
(41.4276°N, 73.1557°W)
Time: 00:57:31
(UTC+00:00)

Altair - Pass Details

Date: 19 June 2021
Orbit: 1501 x 1682 km, 47.2° (Epoch: 23 July)

Event Time Altitude Azimuth Distance (km) Brightness Sun altitude
Rises 19:38:26 0° 260° (W) 4,698 10.7 51.4°
Reaches altitude 10° 19:41:28 10° 263° (W) 3,738 10.4 50.9°
Maximum altitude 19:50:58 69° 346° (NNW) 1,693 8.6 49.1°
Drops below altitude 10° 20:00:52 10° 70° (ENE) 3,886 9.3 47.3°
Sets 20:04:06 0° 73° (ENE) 4,894 9.7 46.7°
